Retour au catalogue

CZ-6A DEB

ActifSSO
NORAD 54514·DEBRIS·🇨🇳 China

Lancé Nov 11, 2022 depuis Taiyuan Satellite Launch Center

Loading…

Prochains Passages (prochaines 24 heures)

TLE

FraisSource: Space-Track

Époque: Sep 14, 2026, 08:44 UTC

1 54514U 22151JS  26257.36414736  .00000333  00000-0  12229-3 0  9994
2 54514  98.6726 304.5035 0077744  51.1450 309.6640 14.37434674201019

Suivez CZ-6A DEB en temps réel avec AllMySat

Download on the App Store